カタログに戻る

OPS 4682 DEB

運用中PO
NORAD 13131·DEBRIS·🇺🇸 United States

打ち上げ Apr 3, 1965 から Vandenberg Space Force Base

Loading…

次のパス (今後24時間)

TLE

最新Source: Space-Track

元期: Sep 12, 2026, 01:18 UTC

1 13131U 65027H   26255.05466644  .00000596  00000-0  20059-2 0  9992
2 13131  90.2380 355.2665 0030361 194.7183 290.2118 12.98085293641978

AllMySatでOPS 4682 DEBをリアルタイム追跡

Download on the App Store